Tracking 29065 objects as of 22-Jul-2024
HD Live streaming from Space Station
objects crossing your sky now

COSMOS 1275 DEB

Track COSMOS 1275 DEB now!
10-day predictions


NORAD ID: 12740
Int'l Code: 1981-053CH
Perigee: 787.0 km
Apogee: 812.2 km
Inclination: 82.8 °
Period: 100.7 minutes
Semi major axis: 7170 km
RCS: 0.0069 m2 (small)
Launch date: June 4, 1981
Source: Commonwealth of Independent States (former USSR) (CIS)
Launch site: PLESETSK MISSILE AND SPACE COMPLEX (PKMTR)

Note: This is SATELLITE DEBRIS
Your satellite tracking list
Your tracking list is empty




NASA's NSSDC Master Catalog

Two Line Element Set (TLE):
1 12740U 81053CH  24204.56388017  .00008881  00000-0  34453-2 0  9997
2 12740  82.8387  59.9994 0017575 109.0291 279.5053 14.29768537197587
Source of the keplerian elements: AFSPC